Погода в Форте Майерсе

США     26°38′24″N   81°52′22″W
темп.,
°C
ветер,
м/с
пор.,
м/с
влажн.,
%
обл.,
%
осадки,
мм/ч
давл.,
гПа
погр.,
м
26 июня, вс
вс2623:00+25св3886100 4.1 1016309
02:00+25всв1286100 4.1 101683
05:00+24ссв2292100 0.0 101586
08:00+25св3487100 0.3 1016218
11:00+30св336289 0.0 10171036
14:00+32всв4352100 1.8 10161762
17:00+32ссв3353100 0.8 10141383
20:00+27в5774100 9.1 1015219
27 июня, пн
пн2723:00+25ююв4885100 2.8 1017325
02:00+24всв228883 2.8 101556
05:00+23юв239155 0.0 101686
08:00+24юв357599 0.0 1017179
11:00+29ююв3458100 0.0 1017955
14:00+33ююв2347100 0.1 10162083
17:00+31зюз335780 0.2 1015717
20:00+28вюв227190 2.4 101658
28 июня, вт
вт2823:00+26вюв237627 0.8 101748
02:00+25вюв2585100 0.8 1016138
05:00+24юв248681 0.0 1016115
08:00+25юв348291 0.0 1018202
11:00+30юв4458100 0.0 10181203
14:00+34вюв344477 0.0 10182333
17:00+28ю356754 1.3 1018180
20:00+29вюв346575 1.5 1018124
29 июня, ср
ср2923:00+27в477533 0.2 1019285
02:00+25вюв367912 0.2 1019179
05:00+24вюв238432 0.0 101999
08:00+26в248097 0.0 1020166
11:00+30вюв3461100 0.0 10211120
14:00+32в335167 0.0 10211506
17:00+32в544892 0.0 10191537
20:00+28в486752 0.0 1020412
30 июня, чт
чт3023:00+26всв26725 0.0 1021223
02:00+25в23775 0.0 102197
05:00+24в228062 0.0 102043
08:00+26в23775 0.0 1021158
11:00+31в33575 0.0 10211255
14:00+34вюв214354 0.1 10192343
17:00+30с466360 0.5 1018373
20:00+25ююз468770 4.9 1019192